Time,TemperatureF,DewpointF,PressureIn,WindDirection,WindDirectionDegrees,WindSpeedMPH,WindSpeedGustMPH,Humidity,HourlyPrecipIn,Conditions,Clouds,dailyrainin,SolarRadiationWatts/m^2,SoftwareType,DateUTC
2013-07-27 00:22:00,65.0,64.0,-100.00,SSW,209,0.0,0.0,97,0.00,,,0.00,0.000000,,2013-07-27 04:22:00,
2013-07-27 00:32:00,65.0,64.0,-100.00,SSW,209,0.0,0.0,97,0.00,,,0.00,0.000000,,2013-07-27 04:32:00,
2013-07-27 00:43:00,65.0,64.0,-100.00,SSW,209,0.0,0.0,97,0.00,,,0.00,0.000000,,2013-07-27 04:43:00,
2013-07-27 01:22:00,65.0,64.0,-100.00,West,269,0.0,0.0,98,0.00,,,0.00,0.000000,,2013-07-27 05:22:00,
2013-07-27 01:32:00,65.0,64.0,-100.00,West,269,0.0,0.0,98,0.00,,,0.00,0.000000,,2013-07-27 05:32:00,
2013-07-27 01:43:00,65.0,64.0,-100.00,West,269,0.0,0.0,98,0.00,,,0.00,0.000000,,2013-07-27 05:43:00,
2013-07-27 02:22:00,66.0,65.0,-100.00,SSW,204,5.0,8.0,98,0.02,,,0.02,0.000000,,2013-07-27 06:22:00,
2013-07-27 02:33:00,66.0,65.0,-100.00,SSW,204,5.0,8.0,98,0.02,,,0.02,0.000000,,2013-07-27 06:33:00,
2013-07-27 02:43:00,66.0,65.0,-100.00,SSW,204,5.0,8.0,98,0.02,,,0.02,0.000000,,2013-07-27 06:43:00,
2013-07-27 03:12:00,65.0,64.0,-100.00,SSW,200,3.0,9.0,95,0.05,,,0.07,0.000000,,2013-07-27 07:12:00,
2013-07-27 03:22:00,65.0,64.0,-100.00,SSW,200,3.0,9.0,95,0.05,,,0.07,0.000000,,2013-07-27 07:22:00,
2013-07-27 03:34:00,65.0,64.0,-100.00,SSW,200,3.0,9.0,95,0.05,,,0.07,0.000000,,2013-07-27 07:34:00,
2013-07-27 03:44:00,65.0,64.0,-100.00,SSW,200,3.0,9.0,95,0.05,,,0.07,0.000000,,2013-07-27 07:44:00,
2013-07-27 04:12:00,64.0,63.0,-100.00,SW,215,1.0,5.0,96,0.01,,,0.08,0.000000,,2013-07-27 08:12:00,
2013-07-27 04:22:00,64.0,63.0,-100.00,SW,215,1.0,5.0,96,0.01,,,0.08,0.000000,,2013-07-27 08:22:00,
2013-07-27 04:32:00,64.0,63.0,-100.00,SW,215,1.0,5.0,96,0.01,,,0.08,0.000000,,2013-07-27 08:32:00,
2013-07-27 04:43:00,64.0,63.0,-100.00,SW,215,1.0,5.0,96,0.01,,,0.08,0.000000,,2013-07-27 08:43:00,
2013-07-27 05:12:00,64.0,63.0,-100.00,SE,138,1.0,4.0,97,0.00,,,0.08,0.000000,,2013-07-27 09:12:00,
2013-07-27 05:22:00,64.0,63.0,-100.00,SE,138,1.0,4.0,97,0.00,,,0.08,0.000000,,2013-07-27 09:22:00,
2013-07-27 05:33:00,64.0,63.0,-100.00,SE,138,1.0,4.0,97,0.00,,,0.08,0.000000,,2013-07-27 09:33:00,
2013-07-27 05:44:00,64.0,63.0,-100.00,SE,138,1.0,4.0,97,0.00,,,0.08,0.000000,,2013-07-27 09:44:00,
2013-07-27 06:12:00,64.0,63.0,-100.00,South,191,3.0,4.0,98,0.02,,,0.10,0.000000,,2013-07-27 10:12:00,
2013-07-27 06:22:00,64.0,63.0,-100.00,South,191,3.0,4.0,98,0.02,,,0.10,0.000000,,2013-07-27 10:22:00,
2013-07-27 06:32:00,64.0,63.0,-100.00,South,191,3.0,4.0,98,0.02,,,0.10,0.000000,,2013-07-27 10:32:00,
2013-07-27 06:43:00,64.0,63.0,-100.00,South,191,3.0,4.0,98,0.02,,,0.10,0.000000,,2013-07-27 10:43:00,
2013-07-27 07:12:00,64.0,63.0,-100.00,South,182,4.0,6.0,98,0.04,,,0.14,0.000000,,2013-07-27 11:12:00,
2013-07-27 07:22:00,64.0,63.0,-100.00,South,182,4.0,6.0,98,0.04,,,0.14,0.000000,,2013-07-27 11:22:00,
2013-07-27 07:32:00,64.0,63.0,-100.00,South,182,4.0,6.0,98,0.04,,,0.14,0.000000,,2013-07-27 11:32:00,
2013-07-27 07:44:00,64.0,63.0,-100.00,South,182,4.0,6.0,98,0.04,,,0.14,0.000000,,2013-07-27 11:44:00,
2013-07-27 08:12:00,64.0,63.0,-100.00,SSW,204,3.0,6.0,98,0.04,,,0.18,12.000000,,2013-07-27 12:12:00,
2013-07-27 08:22:00,64.0,63.0,-100.00,SSW,204,3.0,6.0,98,0.04,,,0.18,12.000000,,2013-07-27 12:22:00,
2013-07-27 08:33:00,64.0,63.0,-100.00,SSW,204,3.0,6.0,98,0.04,,,0.18,12.000000,,2013-07-27 12:33:00,
2013-07-27 08:43:00,64.0,63.0,-100.00,SSW,204,3.0,6.0,98,0.04,,,0.18,12.000000,,2013-07-27 12:43:00,
2013-07-27 09:22:00,65.0,64.0,-100.00,SW,227,4.0,8.0,98,0.00,,,0.18,39.000000,,2013-07-27 13:22:00,
2013-07-27 09:32:00,65.0,64.0,-100.00,SW,227,4.0,8.0,98,0.00,,,0.18,39.000000,,2013-07-27 13:32:00,
2013-07-27 09:44:00,65.0,64.0,-100.00,SW,227,4.0,8.0,98,0.00,,,0.18,39.000000,,2013-07-27 13:44:00,
2013-07-27 10:22:00,65.0,64.0,-100.00,SW,222,7.0,11.0,96,0.03,,,0.21,60.000000,,2013-07-27 14:22:00,
2013-07-27 10:32:00,65.0,64.0,-100.00,SW,222,7.0,11.0,96,0.03,,,0.21,60.000000,,2013-07-27 14:32:00,
2013-07-27 10:44:00,65.0,64.0,-100.00,SW,222,7.0,11.0,96,0.03,,,0.21,60.000000,,2013-07-27 14:44:00,
2013-07-27 11:12:00,65.0,64.0,-100.00,SW,224,7.0,13.0,95,0.00,,,0.21,109.000000,,2013-07-27 15:12:00,
2013-07-27 11:22:00,65.0,64.0,-100.00,SW,224,7.0,13.0,95,0.00,,,0.21,109.000000,,2013-07-27 15:22:00,
2013-07-27 11:33:00,65.0,64.0,-100.00,SW,224,7.0,13.0,95,0.00,,,0.21,109.000000,,2013-07-27 15:33:00,
2013-07-27 11:44:00,65.0,64.0,-100.00,SW,224,7.0,13.0,95,0.00,,,0.21,109.000000,,2013-07-27 15:44:00,
2013-07-27 12:12:00,66.0,65.0,-100.00,SW,234,7.0,13.0,95,0.00,,,0.21,108.000000,,2013-07-27 16:12:00,
2013-07-27 12:23:00,66.0,65.0,-100.00,SW,234,7.0,13.0,95,0.00,,,0.21,108.000000,,2013-07-27 16:23:00,
2013-07-27 12:33:00,66.0,65.0,-100.00,SW,234,7.0,13.0,95,0.00,,,0.21,108.000000,,2013-07-27 16:33:00,
2013-07-27 12:43:00,66.0,65.0,-100.00,SW,234,7.0,13.0,95,0.00,,,0.21,108.000000,,2013-07-27 16:43:00,
2013-07-27 13:12:00,68.0,65.0,-100.00,West,260,7.0,13.0,90,0.00,,,0.21,194.000000,,2013-07-27 17:12:00,
2013-07-27 13:22:00,68.0,65.0,-100.00,West,260,7.0,13.0,90,0.00,,,0.21,194.000000,,2013-07-27 17:22:00,
2013-07-27 13:32:00,68.0,65.0,-100.00,West,260,7.0,13.0,90,0.00,,,0.21,194.000000,,2013-07-27 17:32:00,
2013-07-27 13:43:00,68.0,65.0,-100.00,West,260,7.0,13.0,90,0.00,,,0.21,194.000000,,2013-07-27 17:43:00,
2013-07-27 14:12:00,72.0,65.0,-100.00,SW,228,8.0,18.0,79,0.00,,,0.21,593.000000,,2013-07-27 18:12:00,
2013-07-27 14:22:00,72.0,65.0,-100.00,SW,228,8.0,18.0,79,0.00,,,0.21,593.000000,,2013-07-27 18:22:00,
2013-07-27 14:33:00,72.0,65.0,-100.00,SW,228,8.0,18.0,79,0.00,,,0.21,593.000000,,2013-07-27 18:33:00,
2013-07-27 14:43:00,72.0,65.0,-100.00,SW,228,8.0,18.0,79,0.00,,,0.21,593.000000,,2013-07-27 18:43:00,
2013-07-27 15:12:00,73.0,64.0,-100.00,SW,224,8.0,16.0,73,0.00,,,0.21,514.000000,,2013-07-27 19:12:00,
2013-07-27 15:23:00,73.0,64.0,-100.00,SW,224,8.0,16.0,73,0.00,,,0.21,514.000000,,2013-07-27 19:23:00,
2013-07-27 15:32:00,73.0,64.0,-100.00,SW,224,8.0,16.0,73,0.00,,,0.21,514.000000,,2013-07-27 19:32:00,
2013-07-27 15:43:00,73.0,64.0,-100.00,SW,224,8.0,16.0,73,0.00,,,0.21,514.000000,,2013-07-27 19:43:00,
2013-07-27 16:12:00,76.0,62.0,-100.00,SSW,213,9.0,17.0,62,0.00,,,0.21,887.000000,,2013-07-27 20:12:00,
2013-07-27 16:23:00,76.0,62.0,-100.00,SSW,213,9.0,17.0,62,0.00,,,0.21,887.000000,,2013-07-27 20:23:00,
2013-07-27 16:32:00,76.0,62.0,-100.00,SSW,213,9.0,17.0,62,0.00,,,0.21,887.000000,,2013-07-27 20:32:00,
2013-07-27 16:43:00,76.0,62.0,-100.00,SSW,213,9.0,17.0,62,0.00,,,0.21,887.000000,,2013-07-27 20:43:00,
2013-07-27 17:12:00,76.0,58.0,-100.00,West,273,10.0,16.0,53,0.00,,,0.21,545.000000,,2013-07-27 21:12:00,
2013-07-27 17:23:00,76.0,58.0,-100.00,West,273,10.0,16.0,53,0.00,,,0.21,545.000000,,2013-07-27 21:23:00,
2013-07-27 17:33:00,76.0,58.0,-100.00,West,273,10.0,16.0,53,0.00,,,0.21,545.000000,,2013-07-27 21:33:00,
2013-07-27 17:43:00,76.0,58.0,-100.00,West,273,10.0,16.0,53,0.00,,,0.21,545.000000,,2013-07-27 21:43:00,
2013-07-27 18:12:00,76.0,54.0,-100.00,West,265,10.0,17.0,47,0.00,,,0.21,557.000000,,2013-07-27 22:12:00,
2013-07-27 18:22:00,76.0,54.0,-100.00,West,265,10.0,17.0,47,0.00,,,0.21,557.000000,,2013-07-27 22:22:00,
2013-07-27 18:33:00,76.0,54.0,-100.00,West,265,10.0,17.0,47,0.00,,,0.21,557.000000,,2013-07-27 22:33:00,
2013-07-27 18:43:00,76.0,54.0,-100.00,West,265,10.0,17.0,47,0.00,,,0.21,557.000000,,2013-07-27 22:43:00,
2013-07-27 19:12:00,75.0,54.0,-100.00,WSW,245,10.0,18.0,48,0.00,,,0.21,508.000000,,2013-07-27 23:12:00,
2013-07-27 19:22:00,75.0,54.0,-100.00,WSW,245,10.0,18.0,48,0.00,,,0.21,508.000000,,2013-07-27 23:22:00,
2013-07-27 19:32:00,75.0,54.0,-100.00,WSW,245,10.0,18.0,48,0.00,,,0.21,508.000000,,2013-07-27 23:32:00,
2013-07-27 19:44:00,75.0,54.0,-100.00,WSW,245,10.0,18.0,48,0.00,,,0.21,508.000000,,2013-07-27 23:44:00,
2013-07-27 20:12:00,74.0,57.0,-100.00,WSW,255,6.0,13.0,55,0.00,,,0.21,259.000000,,2013-07-28 00:12:00,
2013-07-27 20:23:00,74.0,57.0,-100.00,WSW,255,6.0,13.0,55,0.00,,,0.21,259.000000,,2013-07-28 00:23:00,
2013-07-27 20:32:00,74.0,57.0,-100.00,WSW,255,6.0,13.0,55,0.00,,,0.21,259.000000,,2013-07-28 00:32:00,
2013-07-27 20:44:00,74.0,57.0,-100.00,WSW,255,6.0,13.0,55,0.00,,,0.21,259.000000,,2013-07-28 00:44:00,
2013-07-27 21:12:00,67.0,60.0,-100.00,WSW,242,2.0,10.0,77,0.00,,,0.21,77.000000,,2013-07-28 01:12:00,
2013-07-27 21:23:00,67.0,60.0,-100.00,WSW,242,2.0,10.0,77,0.00,,,0.21,77.000000,,2013-07-28 01:23:00,
2013-07-27 21:32:00,67.0,60.0,-100.00,WSW,242,2.0,10.0,77,0.00,,,0.21,77.000000,,2013-07-28 01:32:00,
2013-07-27 21:43:00,67.0,60.0,-100.00,WSW,242,2.0,10.0,77,0.00,,,0.21,77.000000,,2013-07-28 01:43:00,
2013-07-27 22:12:00,62.0,59.0,-100.00,West,271,3.0,4.0,90,0.00,,,0.21,3.000000,,2013-07-28 02:12:00,
2013-07-27 22:22:00,62.0,59.0,-100.00,West,271,3.0,4.0,90,0.00,,,0.21,3.000000,,2013-07-28 02:22:00,
2013-07-27 22:32:00,62.0,59.0,-100.00,West,271,3.0,4.0,90,0.00,,,0.21,3.000000,,2013-07-28 02:32:00,
2013-07-27 22:42:00,62.0,59.0,-100.00,West,271,3.0,4.0,90,0.00,,,0.21,3.000000,,2013-07-28 02:42:00,
2013-07-27 23:12:00,63.0,56.0,-100.00,WNW,289,4.0,8.0,78,0.00,,,0.21,0.000000,,2013-07-28 03:12:00,
2013-07-27 23:22:00,63.0,56.0,-100.00,WNW,289,4.0,8.0,78,0.00,,,0.21,0.000000,,2013-07-28 03:22:00,
2013-07-27 23:32:00,63.0,56.0,-100.00,WNW,289,4.0,8.0,78,0.00,,,0.21,0.000000,,2013-07-28 03:32:00,
2013-07-27 23:42:00,63.0,56.0,-100.00,WNW,289,4.0,8.0,78,0.00,,,0.21,0.000000,,2013-07-28 03:42:00,